Hourly Weather Roundup
Issued by NWS Central Illinois

Home | Current Version | Previous Version | Text Only | Print | Product List | Glossary On
Versions: 1 2 3 4 5 6 7 8 9 10 11 12 13 14 15 16 17 18 19 20 21 22 23 24 25 26 27 28 29 30 31 32 33 34 35 36 37 38 39 40 41 42 43 44 45 46 47 48 49 50
000
NZUS43 KILX 172010
HWRILX

AREA WEATHER ROUNDUP
NATIONAL WEATHER SERVICE, LINCOLN IL
200 PM CST WED DEC 17 2014


CITY           SKY/WX    TMP DP  RH WIND       PRES   REMARKS
BLOOMINGTON    CLOUDY    24  19  81 NW7       30.26S WCI  16
CHAMPAIGN      CLOUDY    24  19  81 W10       30.26F WCI  14
DECATUR        CLOUDY    24  18  77 NW10      30.28S WCI  14
FLORA          MOSUNNY   32  26  77 NW9       30.28S WCI  25
GALESBURG      PTSUNNY   28  21  75 W10       30.26F WCI  18
JACKSONVILLE   MOSUNNY   29  21  71 NW7       30.29S WCI  22
LACON          PTSUNNY   27  19  71 W9        30.26R WCI  18
LAWRENCEVILLE  CLOUDY    32  24  72 NW9       30.28S WCI  24
LITCHFIELD     CLOUDY    31  24  75 NW8       30.27S WCI  23
$$


CITY           SKY/WX    TMP DP  RH WIND       PRES   REMARKS
LINCOLN        CLOUDY    26  20  78 W5        30.30S WCI  20
MACOMB         PTSUNNY   27  21  78 W7        30.30F WCI  19
MATTOON        CLOUDY    26  20  77 NW9       30.26R WCI  17
MT CARMEL AP   CLOUDY    34  27  75 W7        30.28R WCI  28
OLNEY-NOBLE AP CLOUDY    32  27  80 NW6       30.28S WCI  26
PARIS          CLOUDY    25  22  89 W10       30.28R WCI  15
PEORIA         PTSUNNY   28  18  66 W7        30.27F WCI  21
PONTIAC        CLOUDY    28  22  78 W10       30.25S WCI  18
RANTOUL        CLOUDY    26  21  82 W8        30.26S WCI  17
ROBINSON       CLOUDY    30  24  79 NW8       30.28S WCI  22
SPRINGFIELD    CLOUDY    26  18  71 NW9       30.30S WCI  17
TAYLORVILLE    CLOUDY    28  23  80 W12       30.29R WCI  18
$$

...REGIONAL REPORTS...


CITY           SKY/WX    TMP DP  RH WIND       PRES   REMARKS
CHICAGO O`HARE CLOUDY    26  17  68 NW13      30.20F WCI  15
KANKAKEE       CLOUDY    28  21  77 W10       30.23F WCI  18
MOLINE         SUNNY     28  16  60 NW10      30.25F WCI  19
MOUNT VERNON   PTSUNNY   37  25  60 NW5       30.27S WCI  34
PITTSFIELD     MOSUNNY   30  22  73 NW6       30.29F WCI  24
QUINCY         SUNNY     27  18  69 VRB6      30.28F WCI  20
ROCKFORD       CLOUDY    25  16  68 NW13      30.25R WCI  14
$$


CITY           SKY/WX    TMP DP  RH WIND       PRES   REMARKS
BURLINGTON     MOSUNNY   28  19  69 NW6       30.27F WCI  22
CEDAR RAPIDS   SUNNY     25  15  66 NW12      30.25F WCI  14
DES MOINES     PTSUNNY   28  13  53 VRB6      30.28F WCI  22
KIRKSVILLE     SUNNY     31  20  63 VRB3      30.29S
OTTUMWA        SUNNY     28  17  63 NW5       30.28F WCI  23
ST LOUIS       PTSUNNY   38  24  57 NW5       30.28S WCI  34
$$


CITY           SKY/WX    TMP DP  RH WIND       PRES   REMARKS
TERRE HAUTE    CLOUDY    27  21  78 W8        30.27S WCI  19
EVANSVILLE     CLOUDY    36  25  64 W7        30.28S WCI  30
INDIANAPOLIS   CLOUDY    25  20  81 NW9       30.22S WCI  15
LAFAYETTE      CLOUDY    24  19  81 NW12      30.24F WCI  13
MADISON        CLOUDY    24  15  68 W7        30.21R WCI  16
MILWAUKEE      PTSUNNY   27  15  61 W13       30.18F WCI  16
$$





USA.gov is the U.S. government's official web portal to all federal, state and local government web resources and services.